Hourly Weather Roundup
Issued by NWS Central Illinois

Home | Current Version | Previous Version | Text Only | Print | Product List | Glossary On
Versions: 1 2 3 4 5 6 7 8 9 10 11 12 13 14 15 16 17 18 19 20 21 22 23 24 25 26 27 28 29 30 31 32 33 34 35 36 37 38 39 40 41 42 43 44 45 46 47 48 49 50
000
NZUS43 KILX 010110
HWRILX

AREA WEATHER ROUNDUP
NATIONAL WEATHER SERVICE, LINCOLN IL
800 PM CDT SAT APR 30 2016


CITY           SKY/WX    TMP DP  RH WIND       PRES   REMARKS
BLOOMINGTON    CLOUDY    56  56 100 NE9       29.82S FOG
CHAMPAIGN      CLOUDY    61  61 100 E3        29.81R FOG
DANVILLE       CLOUDY    57  57  99 CALM      29.80R FOG
DECATUR        FOG       60  59  96 CALM      29.82R VSB 1/4
EFFINGHAM      CLOUDY    67  66  96 CALM      29.82R
FLORA          CLOUDY    69  64  82 S8        29.81S
GALESBURG      CLOUDY    48  47  97 NE15G24   29.84R FOG
JACKSONVILLE   MOCLDY    64  61  91 E3        29.77S
LACON          DRIZZLE   49  47  95 NE9       29.85R
LAWRENCEVILLE  CLOUDY    66  64  93 S12       29.83R
LITCHFIELD     CLOUDY    65  61  89 S3        29.80R
$$


CITY           SKY/WX    TMP DP  RH WIND       PRES   REMARKS
LINCOLN        MOCLDY    63  62  99 S3        29.79R FOG
MACOMB         CLOUDY    55  55 100 NE13      29.83R FOG
MATTOON        CLOUDY    65  61  87 S5        29.80R
MT CARMEL AP   NOT AVBL
OLNEY-NOBLE AP CLOUDY    66  64  94 S5        29.83R
PARIS          NOT AVBL
PEORIA         CLOUDY    52  50  93 NE13      29.83R
PONTIAC        CLOUDY    51  51 100 NE15      29.85R
RANTOUL        CLOUDY    60  60  99 SE3       29.81R FOG
ROBINSON       CLOUDY    64  62  93 S7        29.84R
SPRINGFIELD    PTCLDY    64  62  93 SE6       29.78R
TAYLORVILLE    PTCLDY    63  63 100 CALM      29.81R
$$

...REGIONAL REPORTS...


CITY           SKY/WX    TMP DP  RH WIND       PRES   REMARKS
CHICAGO O`HARE LGT RAIN  45  43  93 NE15      29.92S FOG
KANKAKEE       CLOUDY    49  47  96 NE9       29.87R FOG
MOLINE         CLOUDY    47  44  90 E16       29.88R FOG
MOUNT STERLING TSTM      62  60  96 E6        29.78R
MOUNT VERNON   CLOUDY    68  59  73 S7        29.82R
PITTSFIELD     MOCLDY    67  63  86 N3        29.78R
QUINCY         RAIN      64  62  93 SE6       29.79R FOG
ROCKFORD       LGT RAIN  45  42  89 NE20G26   29.96R FOG
$$


CITY           SKY/WX    TMP DP  RH WIND       PRES   REMARKS
BURLINGTON     CLOUDY    49  49 100 NE14      29.82R FOG
CEDAR RAPIDS   CLOUDY    46  45  96 E18G29    29.88R
DES MOINES     DRIZZLE   49  45  86 E15       29.85R FOG
KIRKSVILLE     MOCLDY    58  54  86 N10       29.80R
OTTUMWA        CLOUDY    47  46  97 NE15      29.85R FOG
ST LOUIS       TSTM      63  56  78 E10       29.77R
$$


CITY           SKY/WX    TMP DP  RH WIND       PRES   REMARKS
TERRE HAUTE    CLOUDY    64  61  90 S6        29.82R
EVANSVILLE     CLOUDY    67  63  87 SE3       29.85R
INDIANAPOLIS   CLOUDY    61  58  90 S7        29.84R
LAFAYETTE      LGT RAIN  55  54  96 E6        29.83S FOG
MADISON        LGT RAIN  43  40  89 NE22G31   29.99F WCI  34
MILWAUKEE      LGT RAIN  42  39  89 NE15      30.00F WCI  34
$$





USA.gov is the U.S. government's official web portal to all federal, state and local government web resources and services.